Total_Precipitation_Accumulation
1.03 0.97 0.93 0.89 0.86 0.84 0.81 0.76 0.73 0.66 0.58 0.55 0.50 0.43 0.40 0.35 0.31 0.27 0.22 0.22 0.22 0.27 0.42 0.65 0.92 1.16 1.36 1.53 1.64 1.54 1.49 1.36 1.11 0.96 0.95 1.04 1.09 1.16 1.18 1.24 1.23 1.13 1.12
1.03 0.99 0.94 0.91 0.84 0.81 0.81 0.78 0.73 0.68 0.58 0.51 0.46 0.43 0.42 0.39 0.36 0.33 0.29 0.28 0.27 0.28 0.35 0.50 0.72 1.03 1.31 1.49 1.68 1.80 1.66 1.63 1.49 1.21 1.04 1.03 1.07 1.13 1.17 1.24 1.30 1.29 1.22
1.02 1.03 1.01 0.93 0.83 0.77 0.78 0.79 0.81 0.80 0.72 0.62 0.54 0.47 0.43 0.41 0.37 0.34 0.33 0.33 0.33 0.32 0.35 0.44 0.54 0.78 1.12 1.43 1.62 1.86 1.91 1.76 1.78 1.66 1.40 1.19 1.14 1.15 1.21 1.27 1.32 1.39 1.36
1.10 1.10 1.08 1.01 0.92 0.86 0.82 0.77 0.76 0.77 0.76 0.71 0.65 0.59 0.52 0.46 0.39 0.34 0.32 0.32 0.36 0.37 0.37 0.40 0.47 0.60 0.90 1.25 1.60 1.85 2.24 2.11 1.98 2.04 1.98 1.65 1.38 1.29 1.31 1.38 1.43 1.49 1.52
1.14 1.15 1.12 1.07 1.01 0.98 0.92 0.85 0.78 0.71 0.68 0.65 0.62 0.59 0.54 0.52 0.51 0.48 0.42 0.34 0.32 0.37 0.41 0.42 0.46 0.50 0.66 0.99 1.37 1.73 2.25 2.60 2.43 2.33 2.39 2.29 1.92 1.64 1.54 1.57 1.62 1.65 1.72
1.22 1.17 1.14 1.10 1.09 1.05 0.99 0.92 0.84 0.75 0.66 0.63 0.64 0.62 0.56 0.50 0.49 0.46 0.45 0.41 0.35 0.33 0.41 0.47 0.48 0.45 0.49 0.66 0.98 1.45 1.94 2.48 2.75 2.64 2.59 2.64 2.51 2.22 1.99 1.87 1.84 1.91 1.96
1.38 1.33 1.26 1.20 1.17 1.11 1.01 0.93 0.89 0.86 0.81 0.76 0.79 0.75 0.65 0.55 0.51 0.48 0.45 0.43 0.39 0.35 0.37 0.46 0.53 0.49 0.44 0.48 0.61 0.89 1.42 2.14 2.75 3.00 2.97 2.87 2.86 2.67 2.41 2.20 2.06 2.11 2.21
1.52 1.45 1.34 1.29 1.24 1.18 1.11 1.02 0.95 0.93 0.87 0.85 0.89 0.93 0.82 0.70 0.57 0.46 0.44 0.42 0.38 0.37 0.39 0.41 0.49 0.55 0.52 0.47 0.43 0.56 0.85 1.48 2.28 2.93 3.27 3.33 3.27 3.19 2.91 2.61 2.40 2.36 2.45
1.47 1.41 1.30 1.25 1.27 1.26 1.19 1.10 1.02 0.96 0.90 0.79 0.77 0.98 1.01 0.76 0.52 0.43 0.41 0.41 0.39 0.40 0.39 0.40 0.44 0.51 0.57 0.56 0.50 0.52 0.60 0.95 1.64 2.47 3.10 3.44 3.59 3.75 3.63 3.16 2.86 2.71 2.71
1.39 1.34 1.34 1.29 1.22 1.20 1.14 1.08 1.04 0.99 0.94 0.88 0.79 0.76 0.79 0.75 0.73 0.55 0.38 0.36 0.38 0.41 0.42 0.42 0.43 0.48 0.54 0.60 0.62 0.63 0.65 0.74 1.18 1.82 2.60 3.27 3.68 4.01 4.26 3.85 3.33 3.08 2.99
1.46 1.41 1.36 1.36 1.31 1.23 1.15 1.12 1.11 1.08 1.03 0.96 0.87 0.77 0.71 0.63 0.63 0.72 0.53 0.38 0.39 0.40 0.43 0.47 0.49 0.51 0.54 0.60 0.65 0.68 0.76 0.78 1.01 1.44 2.00 2.81 3.51 4.14 4.67 4.52 3.81 3.30 3.11
1.47 1.36 1.33 1.31 1.28 1.21 1.12 1.09 1.10 1.13 1.11 1.03 0.92 0.84 0.83 0.80 0.69 0.72 0.67 0.48 0.45 0.43 0.45 0.50 0.56 0.58 0.59 0.62 0.64 0.75 0.80 0.86 0.97 1.19 1.50 2.06 2.81 3.55 4.43 4.78 4.24 3.57 3.20
1.43 1.34 1.24 1.17 1.12 1.10 1.09 1.07 1.08 1.07 1.07 1.10 1.05 0.94 0.87 0.80 0.75 0.81 0.86 0.74 0.64 0.54 0.53 0.54 0.56 0.62 0.66 0.66 0.68 0.75 0.77 0.86 0.98 1.11 1.25 1.47 1.96 2.74 3.67 4.65 4.88 4.19 3.59
1.30 1.29 1.27 1.20 1.07 1.00 1.03 1.07 1.07 1.05 1.05 1.09 1.05 1.00 0.94 0.82 0.82 0.90 0.99 1.09 1.04 0.75 0.63 0.58 0.55 0.58 0.65 0.72 0.74 0.79 0.72 0.85 0.97 1.09 1.19 1.29 1.47 1.95 2.80 3.85 4.87 4.95 4.25
1.29 1.31 1.29 1.28 1.21 1.12 1.04 1.03 1.04 1.03 1.08 1.08 1.07 1.04 1.04 0.94 0.90 0.91 0.96 1.14 1.43 1.25 0.77 0.57 0.56 0.59 0.67 0.76 0.85 0.82 0.78 0.84 0.93 1.07 1.21 1.30 1.37 1.60 2.00 2.68 3.63 4.65 4.87
1.22 1.31 1.36 1.31 1.33 1.31 1.22 1.12 1.06 1.03 1.08 1.10 1.12 1.14 1.11 1.08 1.07 1.02 1.03 1.08 1.23 1.38 1.06 0.56 0.50 0.55 0.68 0.80 0.94 0.95 0.94 1.02 1.00 1.08 1.18 1.26 1.30 1.42 1.64 2.03 2.63 3.55 4.49
1.11 1.19 1.29 1.31 1.32 1.35 1.32 1.26 1.17 1.13 1.12 1.12 1.16 1.22 1.19 1.15 1.21 1.17 1.12 1.08 1.10 1.23 1.25 0.68 0.50 0.53 0.73 0.93 0.99 1.03 1.07 1.04 0.99 1.07 1.14 1.22 1.27 1.35 1.53 1.76 2.11 2.68 3.57
1.13 1.14 1.26 1.38 1.37 1.35 1.33 1.32 1.28 1.28 1.31 1.27 1.21 1.23 1.25 1.25 1.28 1.26 1.26 1.18 1.07 1.04 1.15 0.96 0.66 0.65 0.78 0.96 1.02 1.07 1.15 1.14 1.07 1.13 1.18 1.27 1.35 1.43 1.55 1.68 1.89 2.17 2.79
1.21 1.17 1.22 1.38 1.44 1.43 1.39 1.31 1.31 1.35 1.42 1.49 1.46 1.44 1.37 1.37 1.38 1.32 1.33 1.29 1.18 1.08 1.07 1.09 0.88 0.76 0.83 0.94 1.08 1.17 1.21 1.21 1.22 1.27 1.22 1.26 1.39 1.50 1.58 1.64 1.75 1.94 2.21
1.26 1.24 1.22 1.28 1.40 1.50 1.55 1.55 1.56 1.50 1.50 1.53 1.56 1.57 1.55 1.54 1.49 1.44 1.45 1.41 1.37 1.37 1.32 1.30 1.15 0.97 0.93 0.96 1.15 1.35 1.44 1.31 1.30 1.30 1.33 1.31 1.40 1.48 1.55 1.53 1.50 1.64 1.88
1.32 1.29 1.27 1.24 1.30 1.56 1.90 1.86 1.75 1.67 1.55 1.46 1.40 1.41 1.49 1.65 1.71 1.78 1.81 1.70 1.68 1.79 1.75 1.66 1.46 1.26 1.13 1.17 1.29 1.39 1.61 1.56 1.47 1.40 1.42 1.35 1.35 1.33 1.35 1.42 1.49 1.61 1.78
1.42 1.34 1.29 1.26 1.30 1.50 1.99 2.04 1.72 1.48 1.35 1.32 1.31 1.23 1.22 1.42 1.52 1.66 1.82 1.83 1.90 2.07 2.16 2.07 1.80 1.53 1.26 1.21 1.33 1.55 1.77 1.95 1.88 1.50 1.52 1.56 1.50 1.52 1.41 1.37 1.50 1.57 1.71
1.44 1.39 1.30 1.24 1.21 1.29 1.72 1.82 1.61 1.31 1.16 1.13 1.15 1.14 1.12 1.15 1.28 1.24 1.42 1.54 1.60 1.78 2.02 2.13 2.09 1.66 1.39 1.28 1.57 1.77 1.82 1.95 1.86 1.63 1.71 1.94 1.76 1.68 1.54 1.49 1.53 1.45 1.56
1.48 1.40 1.31 1.24 1.21 1.17 1.52 1.70 1.58 1.22 1.05 0.97 0.97 0.95 0.96 0.99 1.12 1.28 1.38 1.39 1.31 1.40 1.69 1.89 2.06 1.87 1.66 1.62 1.88 2.17 2.29 2.30 2.09 1.87 1.85 2.21 2.01 1.86 1.76 1.64 1.55 1.40 1.44
1.39 1.36 1.28 1.17 1.13 1.12 1.33 1.66 1.65 1.26 1.08 0.95 0.91 0.91 0.88 0.88 1.17 1.42 1.39 1.31 1.19 1.19 1.37 1.66 1.88 1.98 2.05 2.17 2.34 2.63 2.81 2.77 2.60 2.23 2.00 2.19 2.22 2.12 1.98 1.86 1.68 1.48 1.37
1.32 1.32 1.28 1.17 1.11 1.06 1.23 1.61 1.79 1.34 1.15 1.02 0.94 0.90 1.01 1.05 1.28 1.38 1.29 1.34 1.36 1.21 1.16 1.23 1.34 1.45 1.54 1.71 2.06 2.34 2.60 2.76 2.71 2.65 2.19 2.15 2.28 2.34 2.57 2.15 1.74 1.41 1.27